Location: IoMAS Observatory
(54.1780°N, 4.6265°W)
Time: 06:25:29
(UTC+01:00)

ISS - Pass Details

Date: 05 December 2021
Orbit: 413 x 422 km, 51.6° (Epoch: 22 January)

Event Time Altitude Azimuth Distance (km) Brightness Sun altitude
Rises 18:36:53 0° 277° (W) 2,387 1.3 -13.5°
Reaches altitude 10° 18:39:10 10° 266° (W) 1,517 0.4 -13.8°
Maximum altitude 18:42:07 28° 205° (SSW) 831 -1.8 -14.2°
Drops below altitude 10° 18:45:04 10° 145° (SE) 1,506 -1.1 -14.6°
Enters shadow 18:45:55 - 139° (SE) 1,814 -0.8 -14.8°
